Weather History for Goodland, KS

Change the Weather History Date:

Saturday, December 22, 2012

  Actual Average Record
Temperature  
Mean Temperature 33 °F 29 °F  
Max Temperature 49 °F 42 °F 69 °F (1964)
Min Temperature 17 °F 17 °F -27 °F (1989)
Degree Days  
Heating Degree Days 32 36  
Month to date heating degree days 670 768  
Since 1 July heating degree days 1826 2087  
Cooling Degree Days 0 0  
Month to date cooling degree days 0 0  
Year to date cooling degree days 1338 941  
Moisture  
Dew Point 17 °F    
Average Humidity 54    
Maximum Humidity 77    
Minimum Humidity 31    
Precipitation  
Precipitation 0.00 in 0.02 in 0.86 in (1941)
Month to date precipitation 0.35 0.34  
Year to date precipitation 9.37 19.54  
Snow  
Snow 0.00 in 0.20 in - ()
Month to date snowfall 4.2 3.9  
Since 1 July snowfall 4.7 11.1  
Snow Depth 2.00 in    
Sea Level Pressure  
Sea Level Pressure 30.05 in    
Wind  
Wind Speed 7 mph (WNW)    
Max Wind Speed 15 mph    
Max Gust Speed 16 mph    
Visibility 10 miles    
Events      
T = Trace of Precipitation, MM = Missing Value Source: NWS Daily Summary

Daily Weather History Graph

Daily Weather History Graph

Search for Another Location

Airport:

Trip Planner

Search our weather history database for the weather conditions in past years. The results will help you decide how hot, cold, wet, or windy it might be!

Date:

Astronomy

Dec. 22, 2012 Rise Set
Actual Time 7:03 AM MST 4:27 PM MST
Civil Twilight 6:33 AM MST 4:57 PM MST
Nautical Twilight 5:59 AM MST 5:31 PM MST
Astronomical Twilight 5:27 AM MST 6:04 PM MST
Moon 12:45 PM MST (12/22) 1:52 AM MST (12/22)
Length of Visible Light 10h 24m
Length of Day
9h 23m
Waxing Gibbous, 74% of the Moon is Illuminated
Dec 22
Waxing Gibbous
Dec 28
Full
Jan 4
Last Quarter
Jan 11
New
Jan 18
First Quarter

Hourly Weather History & Observations

Time (MST) Temp. Windchill Dew Point Humidity Pressure Visibility Wind Dir Wind Speed Gust Speed Precip Events Conditions
12:53 AM 23.0 °F 15.8 °F 12.9 °F 65% 30.06 in 10.0 mi WSW 5.8 mph - N/A   Clear
1:53 AM 28.9 °F 23.9 °F 12.9 °F 51% 30.04 in 10.0 mi WSW 4.6 mph - N/A   Clear
2:53 AM 23.0 °F 12.4 °F 12.0 °F 63% 30.05 in 10.0 mi WSW 10.4 mph - N/A   Clear
3:53 AM 21.9 °F 12.5 °F 12.0 °F 66% 30.03 in 10.0 mi WNW 8.1 mph - N/A   Clear
4:53 AM 18.0 °F 6.1 °F 10.9 °F 74% 30.06 in 10.0 mi WNW 10.4 mph - N/A   Clear
5:53 AM 21.9 °F 11.0 °F 10.9 °F 63% 30.06 in 10.0 mi West 10.4 mph - N/A   Clear
6:53 AM 23.0 °F 11.1 °F 12.0 °F 63% 30.05 in 10.0 mi WNW 12.7 mph - N/A   Clear
7:53 AM 28.0 °F 18.6 °F 14.0 °F 56% 30.06 in 10.0 mi WNW 10.4 mph - N/A   Clear
8:53 AM 35.1 °F 28.6 °F 17.1 °F 48% 30.07 in 10.0 mi NW 8.1 mph - N/A   Clear
9:53 AM 39.9 °F 33.4 °F 19.9 °F 45% 30.07 in 10.0 mi NW 10.4 mph - N/A   Clear
10:53 AM 44.1 °F 40.1 °F 18.0 °F 35% 30.06 in 10.0 mi NW 6.9 mph - N/A   Clear
11:53 AM 46.0 °F 42.5 °F 21.0 °F 37% 30.03 in 10.0 mi North 6.9 mph - N/A   Clear
12:53 PM 48.0 °F - 19.9 °F 33% 30.02 in 10.0 mi NNW 8.1 mph - N/A   Clear
1:53 PM 48.0 °F - 21.9 °F 36% 29.99 in 10.0 mi NNW 6.9 mph - N/A   Clear
2:53 PM 45.0 °F 42.6 °F 26.1 °F 48% 30.02 in 10.0 mi NNW 4.6 mph - N/A   Clear
3:53 PM 42.1 °F 37.7 °F 24.1 °F 49% 30.03 in 10.0 mi North 6.9 mph - N/A   Clear
4:53 PM 32.0 °F 26.4 °F 23.0 °F 69% 30.07 in 10.0 mi NW 5.8 mph - N/A   Clear
5:53 PM 28.9 °F 22.8 °F 21.0 °F 72% 30.07 in 10.0 mi NNW 5.8 mph - N/A   Clear
6:53 PM 28.0 °F 22.8 °F 19.9 °F 72% 30.08 in 10.0 mi North 4.6 mph - N/A   Clear
7:53 PM 28.0 °F 24.2 °F 19.0 °F 69% 30.06 in 10.0 mi WNW 3.5 mph - N/A   Clear
8:53 PM 25.0 °F 19.3 °F 18.0 °F 75% 30.04 in 10.0 mi WNW 4.6 mph - N/A   Clear
9:53 PM 21.9 °F 13.4 °F 15.1 °F 75% 30.06 in 10.0 mi West 6.9 mph - N/A   Clear
10:53 PM 21.9 °F 15.7 °F 15.1 °F 75% 30.03 in 10.0 mi WSW 4.6 mph - N/A   Clear
11:53 PM 19.9 °F 11.1 °F 12.9 °F 74% 30.01 in 10.0 mi SW 6.9 mph - N/A   Clear